GW4049 Weather Reports


time (UTC)temp
F
wind
direction
speed
knots
gust
knots
rain 1hr
in
rain 24hr
in
rain mn
in
humidity
%
barometer
mb
20260507163915 38 223 0.9 1.7 0.00 0.00 0.00 69 1023.9
20260507163412 39 217 1.7 2.6 0.00 0.00 0.00 71 1024.0
20260507162909 38 211 1.7 2.6 0.00 0.00 0.00 73 1024.1
20260507162404 39 225 1.7 2.6 0.00 0.00 0.00 67 1024.3
20260507161902 39 216 2.6 5.2 0.00 0.00 0.00 62 1024.3
20260507161358 39 195 5.2 7.8 0.00 0.00 0.00 62 1024.6
20260507160855 39 239 3.5 11.3 0.00 0.00 0.00 62 1024.4
20260507160350 39 220 1.7 2.6 0.00 0.00 0.00 71 1024.9
20260507155847 39 209 1.7 7.0 0.00 0.00 0.00 63 1024.9
20260507155342 39 251 2.6 11.3 0.00 0.00 0.00 62 1024.6
20260507154839 39 205 7.0 13.0 0.00 0.00 0.00 61 1024.3
20260507154337 38 231 4.3 11.3 0.00 0.00 0.00 66 1024.6
20260507153833 39 229 5.2 7.0 0.00 0.00 0.00 65 1024.8
20260507153330 39 216 4.3 7.0 0.00 0.00 0.00 65 1024.8
20260507152826 39 168 5.2 7.8 0.00 0.00 0.00 61 1024.4
20260507152322 38 272 2.6 7.0 0.00 0.00 0.00 64 1024.4
20260507151818 39 222 5.2 6.1 0.00 0.00 0.00 62 1024.8
20260507151315 39 209 5.2 8.7 0.00 0.00 0.00 64 1024.6
20260507150812 39 315 7.8 16.5 0.00 0.00 0.00 61 1024.6
20260507150308 39 291 4.3 18.2 0.00 0.00 0.00 61 1024.6
20260507145804 40 241 10.4 15.6 0.00 0.00 0.00 59 1024.6
20260507145301 40 265 7.0 9.6 0.00 0.00 0.00 60 1024.6
20260507144758 40 282 8.7 14.8 0.00 0.00 0.00 59 1024.4
20260507144255 41 228 6.1 9.6 0.00 0.00 0.00 62 1024.3
20260507143752 42 341 5.2 13.0 0.00 0.00 0.00 60 1024.4
20260507143249 42 279 3.5 15.6 0.00 0.00 0.00 59 1024.1
20260507142745 41 324 6.1 13.9 0.00 0.00 0.00 60 1024.0
20260507142242 41 259 8.7 16.5 0.00 0.00 0.00 58 1024.4
20260507141739 41 237 4.3 8.7 0.00 0.00 0.00 58 1024.3
20260507141236 41 30 7.8 9.6 0.00 0.00 0.00 59 1024.3
20260507140731 40 276 5.2 12.2 0.00 0.00 0.00 60 1024.3
20260507140229 40 244 9.6 13.0 0.00 0.00 0.00 61 1024.3
20260507135726 40 277 0.9 5.2 0.00 0.00 0.00 63 1024.3
20260507135223 40 338 2.6 7.0 0.00 0.00 0.00 62 1024.4
20260507134719 39 257 3.5 8.7 0.00 0.00 0.00 62 1024.3
20260507134216 39 290 0.9 2.6 0.00 0.00 0.00 60 1024.1
20260507133712 38 269 2.6 5.2 0.00 0.00 0.00 62 1024.1
20260507133209 38 315 0.9 7.0 0.00 0.00 0.00 63 1024.1
20260507132707 38 343 2.6 6.1 0.00 0.00 0.00 62 1024.1
20260507132203 38 241 1.7 8.7 0.00 0.00 0.00 60 1024.0
20260507131700 37 268 1.7 7.0 0.00 0.00 0.00 61 1023.6
20260507131157 37 229 7.0 16.5 0.00 0.00 0.00 61 1023.7
20260507130653 36 205 6.1 11.3 0.00 0.00 0.00 61 1023.7
20260507130151 36 282 5.2 12.2 0.00 0.00 0.00 60 1024.1
20260507125650 36 240 1.7 7.0 0.00 0.00 0.00 61 1023.9
20260507125147 35 246 3.5 14.8 0.00 0.00 0.00 61 1024.1
20260507124643 35 210 5.2 11.3 0.00 0.00 0.00 60 1024.1
20260507124141 35 237 7.8 14.8 0.00 0.00 0.00 61 1023.7
20260507123639 34 230 6.1 13.0 0.00 0.00 0.00 62 1023.9
20260507123136 34 237 7.0 9.6 0.00 0.00 0.00 63 1023.7
20260507122631 33 244 5.2 9.6 0.00 0.00 0.00 64 1023.5
20260507122127 32 254 3.5 7.0 0.00 0.00 0.00 68 1024.1
20260507121623 32 257 0.9 6.1 0.00 0.00 0.00 68 1024.0
20260507121119 34 260 1.7 6.1 0.00 0.00 0.00 68 1023.9
20260507120616 32 226 3.5 8.7 0.00 0.00 0.00 66 1023.9
20260507120112 30 217 4.3 5.2 0.00 0.00 0.00 76 1024.1
20260507115608 30 234 0.9 2.6 0.00 0.00 0.00 74 1023.6
20260507115104 30 218 1.7 2.6 0.00 0.00 0.00 71 1023.9
20260507114601 31 255 1.7 7.0 0.00 0.00 0.00 67 1023.9
20260507114058 31 220 2.6 5.2 0.00 0.00 0.00 66 1023.6
20260507113555 30 250 4.3 5.2 0.00 0.00 0.00 71 1023.7
20260507113052 29 224 3.5 3.5 0.00 0.00 0.00 77 1023.7
20260507112550 29 225 1.7 2.6 0.00 0.00 0.00 79 1024.1
20260507112046 32 253 0.0 1.7 0.00 0.00 0.00 71 1023.9
20260507111543 32 313 1.7 7.0 0.00 0.00 0.00 61 1024.0
20260507111040 32 261 0.9 8.7 0.00 0.00 0.00 59 1024.0
20260507110537 32 249 2.6 3.5 0.00 0.00 0.00 66 1024.3
20260507110033 31 221 4.3 6.1 0.00 0.00 0.00 66 1023.7
20260507105530 33 190 3.5 6.1 0.00 0.00 0.00 62 1023.9
20260507105026 33 225 1.7 3.5 0.00 0.00 0.00 63 1023.9
20260507104524 33 174 4.3 7.8 0.00 0.00 0.00 59 1024.0
20260507104020 32 289 6.1 11.3 0.00 0.00 0.00 62 1023.9
20260507103516 32 233 3.5 7.0 0.00 0.00 0.00 63 1023.7
20260507103013 32 269 0.9 7.8 0.00 0.00 0.00 62 1023.7
20260507102510 32 276 6.1 11.3 0.00 0.00 0.00 62 1023.7
20260507102007 32 261 5.2 9.6 0.00 0.00 0.00 61 1023.3
20260507101501 32 277 3.5 7.8 0.00 0.00 0.00 61 1023.6
20260507100958 32 233 4.3 5.2 0.00 0.00 0.00 61 1023.3
20260507100455 32 239 3.5 8.7 0.00 0.00 0.00 62 1023.3
20260507095953 31 206 1.7 7.0 0.00 0.00 0.00 66 1023.5
20260507095451 30 157 4.3 5.2 0.00 0.00 0.00 76 1023.3
20260507094947 29 289 5.2 7.8 0.00 0.00 0.00 64 1023.1
20260507094443 32 200 2.6 5.2 0.00 0.00 0.00 66 1023.1
20260507093940 33 224 5.2 6.1 0.00 0.00 0.00 66 1023.5
20260507093438 31 200 6.1 9.6 0.00 0.00 0.00 57 1023.5
20260507092936 28 212 2.6 3.5 0.00 0.00 0.00 75 1023.6
20260507092432 29 187 2.6 2.6 0.00 0.00 0.00 71 1023.3
20260507091929 30 228 0.9 6.1 0.00 0.00 0.00 72 1023.6
20260507091426 32 31 2.6 5.2 0.00 0.00 0.00 62 1023.7
20260507090921 33 200 2.6 6.1 0.00 0.00 0.00 55 1023.5
20260507090418 33 238 1.7 3.5 0.00 0.00 0.00 56 1023.7
20260507085915 31 241 0.9 5.2 0.00 0.00 0.00 61 1023.6
20260507085412 32 253 2.6 6.1 0.00 0.00 0.00 60 1023.9
20260507084909 33 290 6.1 12.2 0.00 0.00 0.00 51 1023.6
20260507084406 33 255 1.7 8.7 0.00 0.00 0.00 58 1023.5
20260507083903 32 246 3.5 6.1 0.00 0.00 0.00 57 1023.5
20260507083359 31 260 4.3 8.7 0.00 0.00 0.00 54 1023.3
20260507082855 32 301 3.5 6.1 0.00 0.00 0.00 57 1023.6
20260507082351 32 225 3.5 5.2 0.00 0.00 0.00 70 1023.7
20260507081848 31 230 3.5 6.1 0.00 0.00 0.00 63 1023.5
20260507081344 33 249 1.7 7.8 0.00 0.00 0.00 56 1023.7
20260507080842 31 215 1.7 6.1 0.00 0.00 0.00 55 1023.5
20260507080337 30 192 7.8 11.3 0.00 0.00 0.00 57 1024.0
20260507075833 31 22 10.4 16.5 0.00 0.00 0.00 56 1023.7
20260507075329 32 264 2.6 7.8 0.00 0.00 0.00 56 1023.1
20260507074826 31 226 7.0 8.7 0.00 0.00 0.00 51 1023.1
20260507074323 32 218 9.6 13.9 0.00 0.00 0.00 46 1023.2
20260507073820 32 227 3.5 13.9 0.00 0.00 0.00 48 1023.1
20260507073317 31 288 4.3 13.0 0.00 0.00 0.00 51 1023.2
20260507072814 31 195 6.1 18.2 0.00 0.00 0.00 49 1023.2
20260507072312 31 262 7.8 12.2 0.00 0.00 0.00 50 1023.3
20260507071809 30 231 2.6 6.1 0.00 0.00 0.00 51 1023.3
20260507071305 30 249 5.2 8.7 0.00 0.00 0.00 53 1023.5
20260507070802 30 220 3.5 6.1 0.00 0.00 0.00 49 1023.5
20260507070259 30 227 3.5 9.6 0.00 0.00 0.00 54 1023.3
20260507065756 31 228 2.6 7.8 0.00 0.00 0.00 50 1023.6
20260507065252 28 228 6.1 7.0 0.00 0.00 0.00 54 1023.3
20260507064750 29 41 0.9 5.2 0.00 0.00 0.00 55 1023.3
20260507064249 30 270 0.9 5.2 0.00 0.00 0.00 51 1023.2
20260507063746 28 259 4.3 6.1 0.00 0.00 0.00 54 1023.6
20260507063242 29 200 2.6 11.3 0.00 0.00 0.00 56 1023.3
20260507062739 29 239 6.1 8.7 0.00 0.00 0.00 56 1023.3
20260507062237 29 230 2.6 8.7 0.00 0.00 0.00 58 1023.2
20260507061735 29 265 6.1 7.0 0.00 0.00 0.00 55 1023.2
20260507061232 29 243 7.8 12.2 0.00 0.00 0.00 57 1023.1
20260507060730 29 264 7.0 14.8 0.00 0.00 0.00 58 1022.9
20260507060227 28 253 8.7 13.0 0.00 0.00 0.00 56 1022.9
20260507055723 29 235 7.0 16.5 0.00 0.00 0.00 56 1022.8
20260507055218 28 129 8.7 18.2 0.00 0.00 0.00 59 1022.9
20260507054714 29 268 2.6 13.0 0.00 0.00 0.00 57 1023.1
20260507054212 29 284 7.8 11.3 0.00 0.00 0.00 54 1022.7
20260507053709 29 292 7.0 12.2 0.00 0.00 0.00 55 1022.8
20260507053207 29 222 10.4 16.5 0.00 0.00 0.00 56 1022.7
20260507052706 29 174 7.0 13.9 0.00 0.00 0.00 58 1022.9
20260507052201 28 248 11.3 19.1 0.00 0.00 0.00 59 1022.7
20260507051700 28 293 2.6 14.8 0.00 0.00 0.00 60 1022.8
20260507051155 28 192 9.6 18.2 0.00 0.00 0.00 57 1022.7
20260507050652 28 277 13.0 23.5 0.00 0.00 0.00 57 1022.8
20260507050149 28 288 7.0 18.2 0.00 0.00 0.00 59 1022.5
20260507045646 28 347 5.2 20.0 0.00 0.00 0.00 59 1022.5
20260507045143 28 213 7.8 20.9 0.00 0.00 0.00 59 1022.4
20260507044640 28 237 15.6 20.0 0.00 0.00 0.00 60 1022.4
20260507044137 28 192 17.4 27.8 0.00 0.00 0.00 58 1022.7
20260507043633 28 270 4.3 16.5 0.00 0.00 0.00 64 1022.1
20260507043130 28 327 6.1 19.1 0.00 0.00 0.00 62 1022.0
20260507042626 28 348 7.0 14.8 0.00 0.00 0.00 61 1022.3
20260507042121 27 64 6.1 9.6 0.00 0.00 0.00 62 1021.9
20260507041618 27 220 5.2 7.8 0.00 0.00 0.00 65 1022.0
20260507041115 28 235 7.0 11.3 0.00 0.00 0.00 64 1022.0
20260507040612 28 249 6.1 13.0 0.00 0.00 0.00 62 1021.9
20260507040108 27 321 0.9 13.0 0.00 0.00 0.00 69 1022.0
20260507035604 27 273 2.6 13.0 0.00 0.00 0.00 68 1021.6
20260507035100 28 248 9.6 15.6 0.00 0.00 0.00 65 1022.0
20260507034557 27 218 9.6 13.0 0.00 0.00 0.00 70 1021.8
20260507034055 27 288 7.0 13.9 0.00 0.00 0.00 70 1021.5
20260507033553 27 239 5.2 14.8 0.00 0.00 0.00 69 1021.9
20260507033050 27 312 7.0 14.8 0.00 0.00 0.00 71 1022.0
20260507032547 28 187 12.2 19.1 0.00 0.00 0.00 68 1021.8
20260507032043 28 284 11.3 20.9 0.00 0.00 0.00 69 1021.8
20260507031540 27 247 5.2 13.9 0.00 0.00 0.00 72 1021.8
20260507031037 27 250 13.0 18.2 0.00 0.00 0.00 73 1022.0
20260507030534 27 235 5.2 20.9 0.00 0.00 0.00 74 1021.5
20260507030032 27 211 7.8 15.6 0.00 0.00 0.00 74 1021.8
20260507025528 27 247 11.3 18.2 0.00 0.00 0.00 75 1021.5
20260507025026 27 264 10.4 14.8 0.00 0.00 0.00 75 1021.6
20260507024523 28 274 3.5 13.0 0.00 0.00 0.00 75 1021.5
20260507024020 27 194 7.0 13.0 0.00 0.00 0.00 77 1021.5
20260507023516 27 353 5.2 12.2 0.00 0.00 0.00 78 1021.4
20260507023014 26 85 7.0 11.3 0.00 0.00 0.00 80 1021.4
20260507022510 26 239 1.7 2.6 0.00 0.00 0.00 82 1021.5
20260507022006 27 264 2.6 7.8 0.00 0.00 0.00 84 1021.6
20260507021502 27 249 0.0 8.7 0.00 0.00 0.00 82 1021.2
20260507020959 27 266 0.9 7.0 0.00 0.00 0.00 83 1021.2
20260507020456 27 231 2.6 13.9 0.00 0.00 0.00 79 1021.5
20260507015952 27 300 2.6 7.0 0.00 0.00 0.00 85 1021.5
20260507015451 27 275 2.6 7.8 0.00 0.00 0.00 79 1021.5
20260507014948 27 287 0.9 7.8 0.00 0.00 0.00 82 1021.2
20260507014444 27 313 6.1 7.8 0.00 0.00 0.00 86 1021.5
20260507013940 27 257 0.9 2.6 0.00 0.00 0.00 84 1021.8
20260507013437 28 260 1.7 1.7 0.00 0.00 0.00 84 1021.5
20260507012935 29 243 1.7 7.0 0.00 0.00 0.00 83 1021.4
20260507012431 29 276 0.9 6.1 0.00 0.00 0.00 85 1021.5
20260507011922 29 260 1.7 7.0 0.00 0.00 0.00 85 1021.4
20260507011419 29 259 1.7 5.2 0.00 0.00 0.00 84 1021.4
20260507010913 29 269 1.7 7.0 0.00 0.00 0.00 86 1021.5
20260507010409 30 328 4.3 8.7 0.00 0.00 0.00 84 1021.4
20260507005906 29 253 0.0 8.7 0.00 0.00 0.00 84 1021.4
20260507005403 30 246 4.3 7.0 0.00 0.00 0.00 83 1021.4
20260507004859 30 338 4.3 7.8 0.00 0.00 0.00 87 1021.4
20260507004356 30 354 7.8 9.6 0.00 0.00 0.00 84 1021.4
20260507003854 30 290 1.7 5.2 0.00 0.00 0.00 84 1021.2
20260507003349 30 251 0.9 7.0 0.00 0.00 0.00 84 1021.5
20260507002844 30 290 3.5 8.7 0.00 0.00 0.00 83 1021.4
20260507002340 30 257 1.7 9.6 0.00 0.00 0.00 89 1021.4
20260507001838 31 250 0.9 1.7 0.00 0.00 0.00 89 1021.2
20260507001335 30 268 0.9 3.5 0.00 0.00 0.00 90 1021.4
20260507000831 30 348 6.1 7.8 0.00 0.00 0.00 90 1021.1
20260507000328 30 345 5.2 11.3 0.00 0.00 0.00 92 1021.2
20260506235823 31 240 1.7 2.6 0.00 0.00 0.00 89 1021.2
20260506235320 31 300 5.2 7.0 0.00 0.00 0.00 90 1021.1
20260506234816 30 245 4.3 6.1 0.00 0.00 0.00 88 1021.1
20260506234314 31 290 0.0 0.0 0.00 0.00 0.00 93 1020.8
20260506233811 30 290 0.0 0.0 0.00 0.00 0.00 88 1021.0
20260506233307 31 279 0.0 0.0 0.00 0.00 0.00 91 1021.0
20260506232804 30 286 0.0 0.0 0.00 0.00 0.00 91 1021.0
20260506232259 31 280 0.0 0.0 0.00 0.00 0.00 95 1020.7
20260506231757 31 277 0.0 0.0 0.00 0.00 0.00 93 1020.8
20260506231255 32 250 0.0 0.0 0.00 0.00 0.00 94 1020.6
20260506230752 32 207 0.0 0.0 0.00 0.00 0.00 90 1020.8
20260506230248 31 265 0.0 0.0 0.00 0.00 0.00 96 1020.8
20260506225745 31 275 0.0 0.0 0.00 0.00 0.00 97 1021.0
20260506225242 31 269 0.0 0.0 0.00 0.00 0.00 97 1020.8
20260506224733 31 251 0.0 0.0 0.00 0.00 0.00 95 1020.7
20260506224231 31 259 0.0 0.0 0.00 0.00 0.00 95 1020.7
20260506223727 31 254 0.0 0.0 0.00 0.00 0.00 95 1020.6
20260506223222 31 243 0.0 0.0 0.00 0.00 0.00 93 1020.6
20260506222719 29 260 0.0 0.0 0.00 0.00 0.00 98 1020.8
20260506222214 26 245 0.0 0.0 0.00 0.00 0.00 97 1020.8
20260506221712 26 246 0.0 0.0 0.00 0.00 0.00 98 1021.0
20260506221210 28 246 0.0 0.0 0.00 0.00 0.00 97 1021.0
20260506220707 28 246 0.0 0.0 0.00 0.00 0.00 98 1021.0
20260506220202 27 247 0.0 0.0 0.00 0.00 0.00 97 1020.7
20260506215659 27 247 0.0 0.0 0.00 0.00 0.00 97 1021.0
20260506215154 28 248 0.0 0.0 0.00 0.00 0.00 97 1020.8
20260506214651 28 248 0.0 0.0 0.00 0.00 0.00 96 1021.0
20260506214148 29 248 0.0 0.0 0.00 0.00 0.00 94 1020.8
20260506213647 30 258 0.0 0.0 0.00 0.00 0.00 96 1021.1
20260506213144 29 284 0.0 0.0 0.00 0.00 0.00 98 1021.0
20260506212641 29 285 0.0 0.0 0.00 0.00 0.00 97 1021.0
20260506212135 30 285 0.0 0.0 0.00 0.00 0.00 98 1021.1
20260506211632 28 284 0.0 0.0 0.00 0.00 0.00 97 1020.8
20260506211129 29 283 0.0 0.0 0.00 0.00 0.00 96 1021.2
20260506210626 28 278 0.0 0.0 0.00 0.00 0.00 94 1021.1
20260506210122 29 274 0.0 0.0 0.00 0.00 0.00 96 1021.1
20260506205619 28 288 0.0 0.0 0.00 0.00 0.00 98 1021.0
20260506205114 28 290 0.0 0.0 0.00 0.00 0.00 97 1021.0
20260506204612 28 289 0.0 0.0 0.00 0.00 0.00 97 1021.0
20260506204109 27 290 0.0 0.0 0.00 0.00 0.00 97 1021.2
20260506203607 28 289 0.0 0.0 0.00 0.00 0.00 97 1021.2
20260506203103 26 289 0.0 0.0 0.00 0.00 0.00 96 1021.2
20260506202601 27 289 0.0 0.0 0.00 0.00 0.00 97 1021.1
20260506202057 26 289 0.0 0.0 0.00 0.00 0.00 97 1021.4
20260506201555 26 289 0.0 0.0 0.00 0.00 0.00 97 1021.2
20260506201051 25 289 0.0 0.0 0.00 0.00 0.00 96 1021.5
20260506200547 24 289 0.0 0.0 0.00 0.00 0.00 97 1021.4
20260506200044 25 289 0.0 0.0 0.00 0.00 0.00 96 1021.4
20260506195541 24 289 0.0 0.0 0.00 0.00 0.00 95 1021.4
20260506195037 25 289 0.0 0.0 0.00 0.00 0.00 96 1021.2
20260506194535 24 289 0.0 0.0 0.00 0.00 0.00 97 1021.1
20260506194031 22 290 0.0 0.0 0.00 0.00 0.00 96 1021.2
20260506193529 23 290 0.0 0.0 0.00 0.00 0.00 96 1021.5
20260506193026 24 290 0.0 0.0 0.00 0.00 0.00 97 1021.5
20260506192523 24 289 0.0 0.0 0.00 0.00 0.00 97 1021.2
20260506192018 23 290 0.0 0.0 0.00 0.00 0.00 96 1021.5
20260506191515 23 290 0.0 0.0 0.00 0.00 0.00 97 1021.4
20260506191012 23 290 0.0 0.0 0.00 0.00 0.00 97 1021.2
20260506190509 23 290 0.0 0.0 0.00 0.00 0.00 97 1021.4
20260506190006 22 290 0.0 0.0 0.00 0.00 0.00 96 1021.5
20260506185503 23 290 0.0 0.0 0.00 0.00 0.00 97 1021.4
20260506184959 23 290 0.0 0.0 0.00 0.00 0.00 97 1021.5
20260506184457 23 290 0.0 0.0 0.00 0.00 0.00 97 1021.5
20260506183954 23 290 0.0 0.0 0.00 0.00 0.00 97 1021.5
20260506183449 24 290 0.0 0.0 0.00 0.00 0.00 98 1021.5
20260506182946 24 290 0.0 0.0 0.00 0.00 0.00 98 1021.8
20260506182444 23 290 0.0 0.0 0.00 0.00 0.00 98 1021.8
20260506181941 24 290 0.0 0.0 0.00 0.00 0.00 97 1021.5
20260506181439 24 290 0.0 0.0 0.00 0.00 0.00 98 1021.6
20260506180935 24 290 0.0 0.0 0.00 0.00 0.00 98 1021.4
20260506180432 23 290 0.0 0.0 0.00 0.00 0.00 97 1021.6
20260506175923 23 290 0.0 0.0 0.00 0.00 0.00 98 1021.6
20260506175420 23 290 0.0 0.0 0.00 0.00 0.00 98 1021.6
20260506174916 24 290 0.0 0.0 0.00 0.00 0.00 98 1021.5
20260506174414 23 290 0.0 0.0 0.00 0.00 0.00 98 1021.2
20260506173912 22 290 0.0 0.0 0.00 0.00 0.00 98 1021.5
20260506173408 23 290 0.0 0.0 0.00 0.00 0.00 98 1021.6
20260506172905 22 290 0.0 0.0 0.00 0.00 0.00 98 1021.6
20260506172401 22 290 0.0 0.0 0.00 0.00 0.00 98 1021.2
20260506171859 22 290 0.0 0.0 0.00 0.00 0.00 97 1021.2
20260506171356 22 290 0.0 0.0 0.00 0.00 0.00 97 1021.5
20260506170853 21 290 0.0 0.0 0.00 0.00 0.00 97 1021.5
20260506170349 20 290 0.0 0.0 0.00 0.00 0.00 97 1021.2
20260506165849 20 291 0.0 0.0 0.00 0.00 0.00 97 1021.2
20260506165346 20 291 0.0 0.0 0.00 0.00 0.00 97 1021.2
20260506164837 20 291 0.0 0.0 0.00 0.00 0.00 97 1021.0
20260506164334 21 291 0.0 0.0 0.00 0.00 0.00 97 1020.8